Date String (YYYY-MM-DD hh:mm:ss) UTC,Instrument flags,absolute air pressure of the measurement (hPa),sample flow rate (lpm),inlet stack bypass flow (lpm),air temperature of the measurement (°C),ambient temperature measured by the external sensor (°C),aerosol sample conditioner tube jacket temperature (°C),OPC LED temperature (°C),internal box temperature (°C),relative humidity of the measurement (%),span deviation,mass concentration of particles derived from Lorenz-Mie calculation of OPC scattering (μg/m³),mass concentration of particles derived from Lorenz-Mie calculation of OPC scattering (μg/m³),mass concentration of particles derived from Lorenz-Mie calculation of OPC scattering (μg/m³)
DateTimeUTC,F1_M11,P_M11,Q1_M11,Q2_M11,T1_M11,T2_M11,T3_M11,T4_M11,T5_M11,U1_M11,ZSPAN_M11,X0_M11,X2_M11,X1_M11
2023-11-18 07:00:00,SystemResetWarning,0831.2,5.00,000.00,025.1,024.1,000.0,033.3,026.4,16.9,0000.0,0012.42,0004.13,0003.37
2023-11-18 07:01:00,SystemResetWarning,0831.2,5.01,000.00,025.1,024.2,000.0,033.3,026.4,16.9,0000.0,0013.13,0004.16,0003.41
2023-11-18 07:02:00,SystemResetWarning,0831.2,5.00,000.00,025.1,024.2,000.0,033.3,026.4,16.8,0000.0,0012.93,0004.14,0003.43
2023-11-18 07:03:00,SystemResetWarning,0831.2,5.01,000.00,025.1,024.2,000.0,033.4,026.4,16.6,0000.0,0012.70,0004.14,0003.43
2023-11-18 07:04:00,SystemResetWarning,0831.2,5.00,000.00,025.1,024.2,000.0,033.4,026.5,16.5,0000.0,0012.06,0004.12,0003.44
2023-11-18 07:05:00,SystemResetWarning,0831.2,5.00,000.00,025.1,024.2,000.0,033.4,026.4,16.5,0000.0,0011.76,0004.14,0003.47
2023-11-18 07:06:00,SystemResetWarning,0831.2,5.00,000.00,025.1,024.2,000.0,033.4,026.4,16.6,0000.0,0011.81,0004.21,0003.55
2023-11-18 07:07:00,SystemResetWarning,0831.2,5.00,000.00,025.1,024.2,000.0,033.4,026.5,16.5,0000.0,0011.53,0004.27,0003.63
2023-11-18 07:08:00,SystemResetWarning,0831.2,5.00,000.00,025.1,024.2,000.0,033.4,026.5,16.5,0000.0,0010.60,0004.33,0003.69
2023-11-18 07:09:00,SystemResetWarning,0831.2,4.99,000.00,025.1,024.2,000.0,033.4,026.5,16.7,0000.0,0010.40,0004.27,0003.64
2023-11-18 07:10:00,SystemResetWarning,0831.2,4.99,000.00,025.1,024.2,000.0,033.4,026.5,16.8,0000.0,0010.05,0004.13,0003.53
2023-11-18 07:11:00,SystemResetWarning,0831.2,4.99,000.00,025.1,024.2,000.0,033.4,026.5,16.3,0000.0,0009.38,0004.00,0003.44
2023-11-18 07:12:00,SystemResetWarning,0831.2,5.00,000.00,025.1,024.2,000.0,033.4,026.5,16.0,0000.0,0009.25,0003.99,0003.42
2023-11-18 07:13:00,SystemResetWarning,0831.2,4.99,000.00,025.1,024.2,000.0,033.4,026.4,15.9,0000.0,0009.53,0004.01,0003.44
2023-11-18 07:14:00,SystemResetWarning,0831.2,5.00,000.00,025.1,024.2,000.0,033.4,026.4,16.1,0000.0,0009.17,0004.03,0003.48
2023-11-18 07:15:00,SystemResetWarning,0831.2,5.01,000.00,025.1,024.2,000.0,033.4,026.4,16.3,0000.0,0009.81,0004.15,0003.56
2023-11-18 07:16:00,SystemResetWarning,0831.1,5.01,000.00,025.1,024.1,000.0,033.4,026.4,16.6,0000.0,0010.54,0004.22,0003.60
2023-11-18 07:17:00,SystemResetWarning,0831.1,4.99,000.00,025.1,024.1,000.0,033.4,026.4,16.8,0000.0,0011.06,0004.15,0003.55
2023-11-18 07:18:00,SystemResetWarning,0831.1,4.99,000.00,025.1,024.1,000.0,033.4,026.4,16.7,0000.0,0010.68,0004.04,0003.47
2023-11-18 07:19:00,SystemResetWarning,0831.1,5.00,000.00,025.0,024.1,000.0,033.4,026.4,16.4,0000.0,0010.42,0003.96,0003.41
2023-11-18 07:20:00,SystemResetWarning,0831.2,5.01,000.00,025.0,024.0,000.0,033.4,026.3,16.0,0000.0,0010.39,0003.96,0003.40
2023-11-18 07:21:00,SystemResetWarning,0831.2,5.00,000.00,025.0,024.0,000.0,033.4,026.3,15.8,0000.0,0010.70,0004.03,0003.44
2023-11-18 07:22:00,SystemResetWarning,0831.1,5.00,000.00,025.0,023.9,000.0,033.4,026.3,15.8,0000.0,0010.78,0004.07,0003.50
2023-11-18 07:23:00,SystemResetWarning,0831.2,5.00,000.00,025.0,023.9,000.0,033.4,026.3,15.7,0000.0,0010.99,0004.10,0003.54
2023-11-18 07:24:00,SystemResetWarning,0831.1,4.99,000.00,024.9,023.9,000.0,033.4,026.3,15.5,0000.0,0010.10,0004.13,0003.57
2023-11-18 07:25:00,SystemResetWarning,0831.1,5.00,000.00,024.9,023.8,000.0,033.4,026.3,15.6,0000.0,0010.30,0004.17,0003.59
2023-11-18 07:26:00,SystemResetWarning,0831.1,5.00,000.00,024.9,023.8,000.0,033.3,026.2,15.9,0000.0,0010.50,0004.09,0003.53
2023-11-18 07:27:00,SystemResetWarning,0831.1,5.00,000.00,024.9,023.8,000.0,033.3,026.2,16.2,0000.0,0009.49,0003.92,0003.44
2023-11-18 07:28:00,SystemResetWarning,0831.1,5.00,000.00,024.9,023.8,000.0,033.3,026.2,16.5,0000.0,0009.33,0003.86,0003.37
2023-11-18 07:29:00,SystemResetWarning,0831.0,5.00,000.00,024.8,023.7,000.0,033.3,026.2,16.6,0000.0,0009.39,0003.88,0003.35
2023-11-18 07:30:00,SystemResetWarning,0830.9,5.00,000.00,024.8,023.7,000.0,033.3,026.2,16.8,0000.0,0009.53,0003.86,0003.33
2023-11-18 07:31:00,SystemResetWarning,0830.9,5.00,000.00,024.8,023.6,000.0,033.3,026.2,16.9,0000.0,0009.45,0003.81,0003.30
2023-11-18 07:32:00,SystemResetWarning,0830.9,5.00,000.00,024.8,023.6,000.0,033.2,026.2,17.1,0000.0,0009.23,0003.76,0003.26
2023-11-18 07:33:00,SystemResetWarning,0830.9,5.00,000.00,024.8,023.6,000.0,033.2,026.1,17.2,0000.0,0009.05,0003.70,0003.21
2023-11-18 07:34:00,SystemResetWarning,0831.0,5.00,000.00,024.7,023.6,000.0,033.2,026.0,17.2,0000.0,0008.90,0003.65,0003.16
2023-11-18 07:35:00,SystemResetWarning,0830.9,5.00,000.00,024.7,023.5,000.0,033.2,026.1,17.2,0000.0,0008.65,0003.59,0003.13
2023-11-18 07:36:00,SystemResetWarning,0830.9,5.00,000.00,024.7,023.5,000.0,033.2,026.1,17.0,0000.0,0008.77,0003.60,0003.14
2023-11-18 07:37:00,SystemResetWarning,0830.9,5.00,000.00,024.7,023.5,000.0,033.2,026.0,17.0,0000.0,0008.50,0003.69,0003.19
2023-11-18 07:38:00,SystemResetWarning,0830.9,5.00,000.00,024.6,023.5,000.0,033.2,026.0,17.1,0000.0,0009.11,0003.80,0003.27
2023-11-18 07:39:00,SystemResetWarning,0830.9,5.00,000.00,024.6,023.5,000.0,033.1,026.0,16.9,0000.0,0009.06,0003.88,0003.36
2023-11-18 07:40:00,SystemResetWarning,0830.8,5.00,000.00,024.6,023.4,000.0,033.1,025.9,17.1,0000.0,0009.24,0003.91,0003.44
2023-11-18 07:41:00,SystemResetWarning,0830.8,5.00,000.00,024.6,023.4,000.0,033.1,025.9,17.2,0000.0,0009.11,0004.02,0003.54
2023-11-18 07:42:00,SystemResetWarning,0830.8,5.00,000.00,024.6,023.4,000.0,033.1,025.9,17.2,0000.0,0009.66,0004.10,0003.60
2023-11-18 07:43:00,SystemResetWarning,0830.8,5.00,000.00,024.6,023.3,000.0,033.1,025.9,17.2,0000.0,0010.32,0004.14,0003.63
2023-11-18 07:44:00,SystemResetWarning,0830.7,5.00,000.00,024.5,023.3,000.0,033.1,025.9,17.2,0000.0,0011.22,0004.22,0003.66
2023-11-18 07:45:00,SystemResetWarning,0830.8,5.00,000.00,024.5,023.3,000.0,033.0,025.9,17.3,0000.0,0011.09,0004.20,0003.66
2023-11-18 07:46:00,SystemResetWarning,0830.7,5.00,000.00,024.5,023.3,000.0,033.0,025.9,17.3,0000.0,0011.10,0004.25,0003.67
2023-11-18 07:47:00,SystemResetWarning,0830.7,5.00,000.00,024.5,023.3,000.0,033.0,025.9,17.3,0000.0,0012.10,0004.27,0003.67
2023-11-18 07:48:00,SystemResetWarning,0830.7,4.99,000.00,024.5,023.3,000.0,033.0,025.8,17.3,0000.0,0012.23,0004.27,0003.67
2023-11-18 07:49:00,SystemResetWarning,0830.6,4.99,000.00,024.5,023.3,000.0,033.0,025.9,17.3,0000.0,0011.92,0004.21,0003.64
2023-11-18 07:50:00,SystemResetWarning,0830.6,5.00,000.00,024.5,023.3,000.0,033.0,025.9,17.3,0000.0,0011.88,0004.19,0003.60
2023-11-18 07:51:00,SystemResetWarning,0830.6,5.00,000.00,024.5,023.3,000.0,033.0,025.8,17.3,0000.0,0011.45,0004.23,0003.57
2023-11-18 07:52:00,SystemResetWarning,0830.6,4.99,000.00,024.4,023.2,000.0,033.0,025.8,17.2,0000.0,0011.76,0004.21,0003.53
2023-11-18 07:53:00,SystemResetWarning,0830.6,5.00,000.00,024.4,023.2,000.0,032.9,025.7,17.1,0000.0,0011.89,0004.22,0003.52
2023-11-18 07:54:00,SystemResetWarning,0830.5,5.00,000.00,024.4,023.2,000.0,032.9,025.7,17.3,0000.0,0012.00,0004.23,0003.52
2023-11-18 07:55:00,SystemResetWarning,0830.5,5.01,000.00,024.4,023.3,000.0,032.9,025.7,17.4,0000.0,0012.08,0004.23,0003.53
2023-11-18 07:56:00,SystemResetWarning,0830.6,5.00,000.00,024.4,023.2,000.0,032.9,025.7,17.5,0000.0,0012.21,0004.24,0003.55
2023-11-18 07:57:00,SystemResetWarning,0830.6,5.00,000.00,024.4,023.2,000.0,032.9,025.7,17.6,0000.0,0012.13,0004.21,0003.53
2023-11-18 07:58:00,SystemResetWarning,0830.6,4.99,000.00,024.4,023.2,000.0,032.9,025.7,17.6,0000.0,0011.07,0004.17,0003.50
2023-11-18 07:59:00,SystemResetWarning,0830.6,5.00,000.00,024.4,023.2,000.0,032.9,025.7,17.6,0000.0,0011.14,0004.13,0003.48
